Time,TemperatureF,DewpointF,PressureIn,WindDirection,WindDirectionDegrees,WindSpeedMPH,WindSpeedGustMPH,Humidity,HourlyPrecipIn,Conditions,Clouds,dailyrainin,SoftwareType,DateUTC
2013-07-09 00:01:00,71.2,66.0,28.24,North,0,0.1,0.0,84,0.00,NA,NA,0.00,davis-wu-upload.pl,2013-07-09 04:01:00,
2013-07-09 00:02:00,71.2,66.0,28.24,North,0,0.1,0.0,84,0.00,NA,NA,0.00,davis-wu-upload.pl,2013-07-09 04:02:00,
2013-07-09 00:03:00,71.2,66.0,28.24,North,0,0.1,0.0,84,0.00,NA,NA,0.00,davis-wu-upload.pl,2013-07-09 04:03:00,
2013-07-09 00:08:00,71.3,65.9,28.24,North,0,0.1,0.0,83,0.00,NA,NA,0.00,davis-wu-upload.pl,2013-07-09 04:08:00,
2013-07-09 00:10:00,71.4,65.9,28.24,North,0,0.1,0.0,83,0.00,NA,NA,0.00,davis-wu-upload.pl,2013-07-09 04:10:00,
2013-07-09 00:15:00,71.4,65.8,28.24,North,0,0.1,0.0,83,0.00,NA,NA,0.00,davis-wu-upload.pl,2013-07-09 04:15:00,
2013-07-09 00:20:00,71.3,65.8,28.24,North,0,0.1,0.0,83,0.00,NA,NA,0.00,davis-wu-upload.pl,2013-07-09 04:20:00,
2013-07-09 00:25:00,71.4,65.8,28.24,North,0,0.1,0.0,82,0.00,NA,NA,0.00,davis-wu-upload.pl,2013-07-09 04:25:00,
2013-07-09 00:30:00,71.3,65.8,28.24,North,0,0.1,0.0,83,0.00,NA,NA,0.00,davis-wu-upload.pl,2013-07-09 04:30:00,
2013-07-09 00:35:00,71.2,65.6,28.25,North,0,0.1,0.0,83,0.00,NA,NA,0.00,davis-wu-upload.pl,2013-07-09 04:35:00,
2013-07-09 00:40:00,71.3,65.6,28.25,North,0,0.1,0.0,82,0.00,NA,NA,0.00,davis-wu-upload.pl,2013-07-09 04:40:00,
2013-07-09 00:45:00,71.5,65.5,28.25,North,0,0.1,0.0,81,0.00,NA,NA,0.00,davis-wu-upload.pl,2013-07-09 04:45:00,
2013-07-09 00:50:00,71.5,65.5,28.25,North,0,0.1,0.0,81,0.00,NA,NA,0.00,davis-wu-upload.pl,2013-07-09 04:50:00,
2013-07-09 00:55:00,71.7,65.4,28.25,North,0,0.1,0.0,81,0.00,NA,NA,0.00,davis-wu-upload.pl,2013-07-09 04:55:00,
2013-07-09 01:00:00,71.9,65.3,28.25,North,0,0.1,0.0,80,0.00,NA,NA,0.00,davis-wu-upload.pl,2013-07-09 05:00:00,
2013-07-09 01:05:00,71.8,65.3,28.24,North,0,0.1,0.0,80,0.00,NA,NA,0.00,davis-wu-upload.pl,2013-07-09 05:05:00,
2013-07-09 01:10:00,72.8,64.7,28.24,North,0,0.1,0.0,76,0.00,NA,NA,0.00,davis-wu-upload.pl,2013-07-09 05:10:00,
2013-07-09 01:15:00,73.9,63.8,28.24,North,0,0.1,0.0,71,0.00,NA,NA,0.00,davis-wu-upload.pl,2013-07-09 05:15:00,
2013-07-09 01:20:00,74.3,63.2,28.24,North,0,0.1,0.0,68,0.00,NA,NA,0.00,davis-wu-upload.pl,2013-07-09 05:20:00,
2013-07-09 01:25:00,74.3,62.8,28.24,North,0,0.1,0.0,67,0.00,NA,NA,0.00,davis-wu-upload.pl,2013-07-09 05:25:00,
2013-07-09 01:30:00,74.4,62.8,28.24,North,0,0.1,0.0,67,0.00,NA,NA,0.00,davis-wu-upload.pl,2013-07-09 05:30:00,
2013-07-09 01:35:00,74.3,62.9,28.24,North,0,0.1,0.0,68,0.00,NA,NA,0.00,davis-wu-upload.pl,2013-07-09 05:35:00,
2013-07-09 01:40:00,74.2,62.7,28.24,North,0,0.1,0.0,67,0.00,NA,NA,0.00,davis-wu-upload.pl,2013-07-09 05:40:00,
2013-07-09 01:45:00,74.2,62.5,28.24,North,0,0.1,0.0,67,0.00,NA,NA,0.00,davis-wu-upload.pl,2013-07-09 05:45:00,
2013-07-09 01:50:00,74.4,62.3,28.24,North,0,0.1,0.0,66,0.00,NA,NA,0.00,davis-wu-upload.pl,2013-07-09 05:50:00,
2013-07-09 01:55:00,74.7,61.6,28.24,North,0,0.1,0.0,64,0.00,NA,NA,0.00,davis-wu-upload.pl,2013-07-09 05:55:00,
2013-07-09 02:00:00,74.8,61.1,28.23,North,0,0.1,0.0,62,0.00,NA,NA,0.00,davis-wu-upload.pl,2013-07-09 06:00:00,
2013-07-09 02:05:00,75.0,60.9,28.23,North,0,0.1,0.0,62,0.00,NA,NA,0.00,davis-wu-upload.pl,2013-07-09 06:05:00,
2013-07-09 02:10:00,75.1,60.8,28.23,North,0,0.1,0.0,61,0.00,NA,NA,0.00,davis-wu-upload.pl,2013-07-09 06:10:00,
2013-07-09 02:15:00,75.1,60.9,28.23,North,0,0.1,0.0,61,0.00,NA,NA,0.00,davis-wu-upload.pl,2013-07-09 06:15:00,
2013-07-09 02:20:00,75.1,61.0,28.24,North,0,0.1,0.0,62,0.00,NA,NA,0.00,davis-wu-upload.pl,2013-07-09 06:20:00,
2013-07-09 02:25:00,74.8,61.1,28.23,North,0,0.1,0.0,62,0.00,NA,NA,0.00,davis-wu-upload.pl,2013-07-09 06:25:00,
2013-07-09 02:30:00,75.1,60.9,28.23,North,0,0.1,0.0,61,0.00,NA,NA,0.00,davis-wu-upload.pl,2013-07-09 06:30:00,
2013-07-09 02:35:00,75.0,61.0,28.23,North,0,0.1,0.0,62,0.00,NA,NA,0.00,davis-wu-upload.pl,2013-07-09 06:35:00,
2013-07-09 02:40:00,74.6,61.4,28.23,North,0,0.1,0.0,64,0.00,NA,NA,0.00,davis-wu-upload.pl,2013-07-09 06:40:00,
2013-07-09 02:45:00,74.2,61.6,28.23,North,0,0.1,0.0,65,0.00,NA,NA,0.00,davis-wu-upload.pl,2013-07-09 06:45:00,
2013-07-09 02:50:00,73.7,62.1,28.23,North,0,0.1,0.0,67,0.00,NA,NA,0.00,davis-wu-upload.pl,2013-07-09 06:50:00,
2013-07-09 02:55:00,73.1,62.2,28.23,North,0,0.1,0.0,69,0.00,NA,NA,0.00,davis-wu-upload.pl,2013-07-09 06:55:00,
2013-07-09 03:00:00,72.4,61.8,28.23,North,0,0.1,0.0,69,0.00,NA,NA,0.00,davis-wu-upload.pl,2013-07-09 07:00:00,
2013-07-09 03:05:00,72.2,61.9,28.23,North,0,0.1,0.0,70,0.00,NA,NA,0.00,davis-wu-upload.pl,2013-07-09 07:05:00,
2013-07-09 03:10:00,72.1,61.6,28.23,North,0,0.1,0.0,70,0.00,NA,NA,0.00,davis-wu-upload.pl,2013-07-09 07:10:00,
2013-07-09 03:15:00,72.3,61.4,28.23,North,0,0.1,0.0,69,0.00,NA,NA,0.00,davis-wu-upload.pl,2013-07-09 07:15:00,
2013-07-09 03:20:00,73.0,60.8,28.23,North,0,0.1,0.0,66,0.00,NA,NA,0.00,davis-wu-upload.pl,2013-07-09 07:20:00,
2013-07-09 03:25:00,73.0,60.9,28.23,North,0,0.1,0.0,66,0.00,NA,NA,0.00,davis-wu-upload.pl,2013-07-09 07:25:00,
2013-07-09 03:30:00,72.8,60.9,28.23,North,0,0.1,0.0,66,0.00,NA,NA,0.00,davis-wu-upload.pl,2013-07-09 07:30:00,
2013-07-09 03:35:00,72.3,60.9,28.23,North,0,0.1,0.0,67,0.00,NA,NA,0.00,davis-wu-upload.pl,2013-07-09 07:35:00,
2013-07-09 03:40:00,72.1,60.9,28.23,North,0,0.1,0.0,68,0.00,NA,NA,0.00,davis-wu-upload.pl,2013-07-09 07:40:00,
2013-07-09 03:45:00,72.2,61.0,28.23,North,0,0.1,0.0,68,0.00,NA,NA,0.00,davis-wu-upload.pl,2013-07-09 07:45:00,
2013-07-09 03:53:00,72.7,60.3,28.23,North,0,0.1,0.0,65,0.00,NA,NA,0.00,davis-wu-upload.pl,2013-07-09 07:53:00,
2013-07-09 03:58:00,73.0,60.4,28.23,North,0,0.1,0.0,65,0.00,NA,NA,0.00,davis-wu-upload.pl,2013-07-09 07:58:00,
2013-07-09 04:03:00,72.5,60.4,28.23,North,0,0.1,0.0,66,0.00,NA,NA,0.00,davis-wu-upload.pl,2013-07-09 08:03:00,
2013-07-09 04:08:00,72.6,60.2,28.23,North,0,0.1,0.0,65,0.00,NA,NA,0.00,davis-wu-upload.pl,2013-07-09 08:08:00,
2013-07-09 04:13:00,73.2,59.9,28.23,North,0,0.1,0.0,63,0.00,NA,NA,0.00,davis-wu-upload.pl,2013-07-09 08:13:00,
2013-07-09 04:18:00,73.4,60.0,28.23,North,0,0.1,0.0,63,0.00,NA,NA,0.00,davis-wu-upload.pl,2013-07-09 08:18:00,
2013-07-09 04:23:00,73.8,60.0,28.23,North,0,0.1,0.0,62,0.00,NA,NA,0.00,davis-wu-upload.pl,2013-07-09 08:23:00,
2013-07-09 04:28:00,73.7,60.1,28.23,North,0,0.1,0.0,63,0.00,NA,NA,0.00,davis-wu-upload.pl,2013-07-09 08:28:00,
2013-07-09 04:33:00,73.6,60.2,28.23,North,0,0.1,0.0,63,0.00,NA,NA,0.00,davis-wu-upload.pl,2013-07-09 08:33:00,
2013-07-09 04:38:00,74.2,60.5,28.23,North,0,0.1,0.0,62,0.00,NA,NA,0.00,davis-wu-upload.pl,2013-07-09 08:38:00,
2013-07-09 04:43:00,73.8,60.5,28.23,North,0,0.1,0.0,63,0.00,NA,NA,0.00,davis-wu-upload.pl,2013-07-09 08:43:00,
2013-07-09 04:48:00,73.9,60.6,28.23,North,0,0.1,0.0,63,0.00,NA,NA,0.00,davis-wu-upload.pl,2013-07-09 08:48:00,
2013-07-09 04:53:00,73.8,60.6,28.23,North,0,0.1,0.0,63,0.00,NA,NA,0.00,davis-wu-upload.pl,2013-07-09 08:53:00,
2013-07-09 04:58:00,74.0,60.6,28.23,North,0,0.1,0.0,63,0.00,NA,NA,0.00,davis-wu-upload.pl,2013-07-09 08:58:00,
2013-07-09 05:03:00,73.8,60.8,28.23,North,0,0.1,0.0,64,0.00,NA,NA,0.00,davis-wu-upload.pl,2013-07-09 09:03:00,
2013-07-09 05:08:00,73.6,60.8,28.23,North,0,0.1,0.0,64,0.00,NA,NA,0.00,davis-wu-upload.pl,2013-07-09 09:08:00,
2013-07-09 05:13:00,73.6,61.0,28.23,North,0,0.1,0.0,65,0.00,NA,NA,0.00,davis-wu-upload.pl,2013-07-09 09:13:00,
2013-07-09 05:18:00,73.1,61.3,28.23,North,0,0.1,0.0,67,0.00,NA,NA,0.00,davis-wu-upload.pl,2013-07-09 09:18:00,
2013-07-09 05:23:00,72.7,61.2,28.23,North,0,0.1,0.0,67,0.00,NA,NA,0.00,davis-wu-upload.pl,2013-07-09 09:23:00,
2013-07-09 05:28:00,72.4,61.5,28.24,North,0,0.1,0.0,68,0.00,NA,NA,0.00,davis-wu-upload.pl,2013-07-09 09:28:00,
2013-07-09 05:33:00,72.3,61.6,28.24,North,0,0.1,0.0,69,0.00,NA,NA,0.00,davis-wu-upload.pl,2013-07-09 09:33:00,
2013-07-09 05:38:00,71.6,61.8,28.24,North,0,0.1,0.0,71,0.00,NA,NA,0.00,davis-wu-upload.pl,2013-07-09 09:38:00,
2013-07-09 05:43:00,71.6,61.8,28.24,North,0,0.1,0.0,71,0.00,NA,NA,0.00,davis-wu-upload.pl,2013-07-09 09:43:00,
2013-07-09 05:48:00,71.9,61.8,28.24,North,0,0.1,0.0,71,0.00,NA,NA,0.00,davis-wu-upload.pl,2013-07-09 09:48:00,
2013-07-09 05:53:00,72.2,61.9,28.24,North,0,0.1,0.0,70,0.00,NA,NA,0.00,davis-wu-upload.pl,2013-07-09 09:53:00,
2013-07-09 05:58:00,72.5,62.2,28.24,North,0,0.1,0.0,70,0.00,NA,NA,0.00,davis-wu-upload.pl,2013-07-09 09:58:00,
2013-07-09 06:03:00,72.4,62.3,28.24,North,0,0.1,0.0,71,0.00,NA,NA,0.00,davis-wu-upload.pl,2013-07-09 10:03:00,
2013-07-09 06:08:00,73.0,62.4,28.24,North,0,0.1,0.0,69,0.00,NA,NA,0.00,davis-wu-upload.pl,2013-07-09 10:08:00,
2013-07-09 06:13:00,73.1,62.0,28.24,North,0,0.1,0.0,68,0.00,NA,NA,0.00,davis-wu-upload.pl,2013-07-09 10:13:00,
2013-07-09 06:18:00,73.3,61.8,28.24,North,0,0.1,0.0,67,0.00,NA,NA,0.00,davis-wu-upload.pl,2013-07-09 10:18:00,
2013-07-09 06:23:00,73.6,60.9,28.24,North,0,0.1,0.0,64,0.00,NA,NA,0.00,davis-wu-upload.pl,2013-07-09 10:23:00,
2013-07-09 06:28:00,73.5,61.2,28.24,North,0,0.1,0.0,65,0.00,NA,NA,0.00,davis-wu-upload.pl,2013-07-09 10:28:00,
2013-07-09 06:33:00,73.7,61.0,28.24,North,0,0.1,0.0,65,0.00,NA,NA,0.00,davis-wu-upload.pl,2013-07-09 10:33:00,
2013-07-09 06:38:00,74.3,61.0,28.24,North,0,0.1,0.0,63,0.00,NA,NA,0.00,davis-wu-upload.pl,2013-07-09 10:38:00,
2013-07-09 06:43:00,74.6,60.6,28.24,North,0,0.1,0.0,62,0.00,NA,NA,0.00,davis-wu-upload.pl,2013-07-09 10:43:00,
2013-07-09 06:48:00,74.8,60.1,28.24,North,0,0.1,0.0,60,0.00,NA,NA,0.00,davis-wu-upload.pl,2013-07-09 10:48:00,
2013-07-09 06:53:00,74.7,60.3,28.24,North,0,0.1,0.0,61,0.00,NA,NA,0.00,davis-wu-upload.pl,2013-07-09 10:53:00,
2013-07-09 06:58:00,74.4,60.3,28.24,North,0,0.1,0.0,61,0.00,NA,NA,0.00,davis-wu-upload.pl,2013-07-09 10:58:00,
2013-07-09 07:03:00,74.4,60.3,28.24,North,0,0.1,0.0,62,0.00,NA,NA,0.00,davis-wu-upload.pl,2013-07-09 11:03:00,
2013-07-09 07:08:00,74.6,60.4,28.24,North,0,0.1,0.0,61,0.00,NA,NA,0.00,davis-wu-upload.pl,2013-07-09 11:08:00,
2013-07-09 07:13:00,74.6,60.5,28.24,North,0,0.1,0.0,62,0.00,NA,NA,0.00,davis-wu-upload.pl,2013-07-09 11:13:00,
2013-07-09 07:18:00,74.5,60.7,28.24,North,0,0.1,0.0,62,0.00,NA,NA,0.00,davis-wu-upload.pl,2013-07-09 11:18:00,
2013-07-09 07:23:00,74.2,60.8,28.24,North,0,0.1,0.0,63,0.00,NA,NA,0.00,davis-wu-upload.pl,2013-07-09 11:23:00,
2013-07-09 07:28:00,74.3,60.8,28.24,North,0,0.1,0.0,63,0.00,NA,NA,0.00,davis-wu-upload.pl,2013-07-09 11:28:00,
2013-07-09 07:33:00,74.6,60.6,28.24,North,0,0.1,0.0,62,0.00,NA,NA,0.00,davis-wu-upload.pl,2013-07-09 11:33:00,
2013-07-09 07:38:00,74.5,60.6,28.25,North,0,0.1,0.0,62,0.00,NA,NA,0.00,davis-wu-upload.pl,2013-07-09 11:38:00,
2013-07-09 07:43:00,74.5,60.7,28.25,North,0,0.1,0.0,62,0.00,NA,NA,0.00,davis-wu-upload.pl,2013-07-09 11:43:00,
2013-07-09 07:48:00,74.8,60.2,28.25,North,0,0.1,0.0,60,0.00,NA,NA,0.00,davis-wu-upload.pl,2013-07-09 11:48:00,
2013-07-09 07:53:00,75.0,60.2,28.25,North,0,0.1,0.0,60,0.00,NA,NA,0.00,davis-wu-upload.pl,2013-07-09 11:53:00,
2013-07-09 07:58:00,75.0,60.0,28.25,North,0,0.1,0.0,60,0.00,NA,NA,0.00,davis-wu-upload.pl,2013-07-09 11:58:00,
2013-07-09 08:03:00,74.9,60.3,28.25,North,0,0.1,0.0,61,0.00,NA,NA,0.00,davis-wu-upload.pl,2013-07-09 12:03:00,
2013-07-09 08:08:00,74.8,60.1,28.25,North,0,0.1,0.0,60,0.00,NA,NA,0.00,davis-wu-upload.pl,2013-07-09 12:08:00,
2013-07-09 08:10:00,74.8,60.1,28.25,North,0,0.1,0.0,60,0.00,NA,NA,0.00,davis-wu-upload.pl,2013-07-09 12:10:00,
2013-07-09 08:15:00,74.5,60.2,28.25,North,0,0.1,0.0,61,0.00,NA,NA,0.00,davis-wu-upload.pl,2013-07-09 12:15:00,
2013-07-09 08:20:00,74.6,60.2,28.25,North,0,0.1,0.0,61,0.00,NA,NA,0.00,davis-wu-upload.pl,2013-07-09 12:20:00,
2013-07-09 08:25:00,74.5,60.1,28.25,North,0,0.1,0.0,61,0.00,NA,NA,0.00,davis-wu-upload.pl,2013-07-09 12:25:00,
2013-07-09 08:30:00,74.6,60.3,28.25,North,0,0.1,0.0,61,0.00,NA,NA,0.00,davis-wu-upload.pl,2013-07-09 12:30:00,
2013-07-09 08:35:00,74.6,60.2,28.25,North,0,0.1,0.0,61,0.00,NA,NA,0.00,davis-wu-upload.pl,2013-07-09 12:35:00,
2013-07-09 08:40:00,74.5,60.6,28.25,North,0,0.1,0.0,62,0.00,NA,NA,0.00,davis-wu-upload.pl,2013-07-09 12:40:00,
2013-07-09 08:45:00,74.6,60.4,28.25,North,0,0.1,0.0,61,0.00,NA,NA,0.00,davis-wu-upload.pl,2013-07-09 12:45:00,
2013-07-09 08:50:00,74.8,60.4,28.25,North,0,0.1,0.0,61,0.00,NA,NA,0.00,davis-wu-upload.pl,2013-07-09 12:50:00,
2013-07-09 08:55:00,74.8,60.3,28.25,North,0,0.1,0.0,61,0.00,NA,NA,0.00,davis-wu-upload.pl,2013-07-09 12:55:00,
2013-07-09 09:00:00,74.6,60.6,28.25,North,0,0.1,0.0,62,0.00,NA,NA,0.00,davis-wu-upload.pl,2013-07-09 13:00:00,
2013-07-09 09:05:00,74.1,61.5,28.25,North,0,0.1,0.0,65,0.00,NA,NA,0.00,davis-wu-upload.pl,2013-07-09 13:05:00,
2013-07-09 09:10:00,73.5,60.8,28.25,North,0,0.1,0.0,64,0.00,NA,NA,0.00,davis-wu-upload.pl,2013-07-09 13:10:00,
2013-07-09 09:15:00,74.2,62.1,28.25,North,0,0.1,0.0,66,0.00,NA,NA,0.00,davis-wu-upload.pl,2013-07-09 13:15:00,
2013-07-09 09:20:00,74.7,61.1,28.25,North,0,0.1,0.0,62,0.00,NA,NA,0.00,davis-wu-upload.pl,2013-07-09 13:20:00,
2013-07-09 09:25:00,75.0,61.4,28.25,North,0,0.1,0.0,63,0.00,NA,NA,0.00,davis-wu-upload.pl,2013-07-09 13:25:00,
2013-07-09 09:30:00,75.1,62.0,28.25,North,0,0.1,0.0,64,0.00,NA,NA,0.00,davis-wu-upload.pl,2013-07-09 13:30:00,
2013-07-09 09:35:00,75.1,62.8,28.25,North,0,0.1,0.0,66,0.00,NA,NA,0.00,davis-wu-upload.pl,2013-07-09 13:35:00,
2013-07-09 09:40:00,74.6,62.2,28.26,North,0,0.1,0.0,65,0.00,NA,NA,0.00,davis-wu-upload.pl,2013-07-09 13:40:00,
2013-07-09 09:45:00,75.5,61.5,28.26,North,0,0.1,0.0,62,0.00,NA,NA,0.00,davis-wu-upload.pl,2013-07-09 13:45:00,
2013-07-09 09:50:00,77.1,62.6,28.26,North,0,0.1,0.0,61,0.00,NA,NA,0.00,davis-wu-upload.pl,2013-07-09 13:50:00,
2013-07-09 09:55:00,77.2,62.1,28.26,North,0,0.1,0.0,60,0.00,NA,NA,0.00,davis-wu-upload.pl,2013-07-09 13:55:00,
2013-07-09 10:00:00,77.8,62.0,28.25,North,0,0.1,0.0,58,0.00,NA,NA,0.00,davis-wu-upload.pl,2013-07-09 14:00:00,
2013-07-09 10:05:00,78.4,61.2,28.25,North,0,0.1,0.0,56,0.00,NA,NA,0.00,davis-wu-upload.pl,2013-07-09 14:05:00,
2013-07-09 10:10:00,78.2,62.6,28.26,North,0,0.1,0.0,59,0.00,NA,NA,0.00,davis-wu-upload.pl,2013-07-09 14:10:00,
2013-07-09 10:15:00,77.7,62.5,28.25,North,0,0.1,0.0,59,0.00,NA,NA,0.00,davis-wu-upload.pl,2013-07-09 14:15:00,
2013-07-09 10:20:00,77.1,62.3,28.25,North,0,0.1,0.0,60,0.00,NA,NA,0.00,davis-wu-upload.pl,2013-07-09 14:20:00,
2013-07-09 10:25:00,76.9,63.0,28.25,North,0,0.1,0.0,62,0.00,NA,NA,0.00,davis-wu-upload.pl,2013-07-09 14:25:00,
2013-07-09 10:30:00,76.4,63.0,28.25,North,0,0.1,0.0,63,0.00,NA,NA,0.00,davis-wu-upload.pl,2013-07-09 14:30:00,
2013-07-09 10:35:00,76.1,62.3,28.25,North,0,0.1,0.0,62,0.00,NA,NA,0.00,davis-wu-upload.pl,2013-07-09 14:35:00,
2013-07-09 10:40:00,75.7,63.5,28.25,North,0,0.1,0.0,66,0.00,NA,NA,0.00,davis-wu-upload.pl,2013-07-09 14:40:00,
2013-07-09 10:45:00,75.9,62.4,28.25,North,0,0.1,0.0,63,0.00,NA,NA,0.00,davis-wu-upload.pl,2013-07-09 14:45:00,
2013-07-09 10:50:00,75.2,62.3,28.25,North,0,0.1,0.0,64,0.00,NA,NA,0.00,davis-wu-upload.pl,2013-07-09 14:50:00,
2013-07-09 10:55:00,75.1,63.5,28.25,North,0,0.1,0.0,67,0.00,NA,NA,0.00,davis-wu-upload.pl,2013-07-09 14:55:00,
2013-07-09 11:00:00,75.2,64.2,28.26,North,0,0.1,0.0,69,0.00,NA,NA,0.00,davis-wu-upload.pl,2013-07-09 15:00:00,
2013-07-09 11:06:00,75.6,63.6,28.26,North,0,0.1,0.0,66,0.00,NA,NA,0.00,davis-wu-upload.pl,2013-07-09 15:06:00,
2013-07-09 11:11:00,75.6,63.2,28.26,North,0,0.1,0.0,66,0.00,NA,NA,0.00,davis-wu-upload.pl,2013-07-09 15:11:00,
2013-07-09 11:15:00,75.8,62.8,28.26,North,0,0.1,0.0,64,0.00,NA,NA,0.00,davis-wu-upload.pl,2013-07-09 15:15:00,
2013-07-09 11:20:00,75.7,62.8,28.26,North,0,0.1,0.0,64,0.00,NA,NA,0.00,davis-wu-upload.pl,2013-07-09 15:20:00,
2013-07-09 11:25:00,75.9,62.1,28.26,North,0,0.1,0.0,62,0.00,NA,NA,0.00,davis-wu-upload.pl,2013-07-09 15:25:00,
2013-07-09 11:30:00,75.7,61.5,28.26,North,0,0.1,0.0,61,0.00,NA,NA,0.00,davis-wu-upload.pl,2013-07-09 15:30:00,
2013-07-09 11:35:00,75.7,61.5,28.26,North,0,0.1,0.0,61,0.00,NA,NA,0.00,davis-wu-upload.pl,2013-07-09 15:35:00,
2013-07-09 11:40:00,76.2,63.0,28.26,North,0,0.1,0.0,64,0.00,NA,NA,0.00,davis-wu-upload.pl,2013-07-09 15:40:00,
2013-07-09 11:45:00,76.8,63.2,28.26,North,0,0.1,0.0,63,0.00,NA,NA,0.00,davis-wu-upload.pl,2013-07-09 15:45:00,
2013-07-09 11:50:00,77.2,64.3,28.26,North,0,0.1,0.0,65,0.00,NA,NA,0.00,davis-wu-upload.pl,2013-07-09 15:50:00,
2013-07-09 11:56:00,77.2,64.1,28.26,North,0,0.1,0.0,64,0.00,NA,NA,0.00,davis-wu-upload.pl,2013-07-09 15:56:00,
2013-07-09 12:01:00,77.2,63.7,28.26,North,0,0.1,0.0,63,0.00,NA,NA,0.00,davis-wu-upload.pl,2013-07-09 16:01:00,
2013-07-09 12:06:00,77.7,64.2,28.26,North,0,0.1,0.0,63,0.00,NA,NA,0.00,davis-wu-upload.pl,2013-07-09 16:06:00,
2013-07-09 12:11:00,77.5,63.1,28.26,North,0,0.1,0.0,61,0.00,NA,NA,0.00,davis-wu-upload.pl,2013-07-09 16:11:00,
2013-07-09 12:16:00,77.9,63.2,28.26,North,0,0.1,0.0,61,0.00,NA,NA,0.00,davis-wu-upload.pl,2013-07-09 16:16:00,
2013-07-09 12:21:00,77.7,63.8,28.26,North,0,0.1,0.0,62,0.00,NA,NA,0.00,davis-wu-upload.pl,2013-07-09 16:21:00,
2013-07-09 12:26:00,77.6,64.8,28.26,North,0,0.1,0.0,65,0.00,NA,NA,0.00,davis-wu-upload.pl,2013-07-09 16:26:00,
2013-07-09 12:31:00,77.8,66.2,28.26,North,0,0.1,0.0,67,0.00,NA,NA,0.00,davis-wu-upload.pl,2013-07-09 16:31:00,
2013-07-09 12:36:00,78.0,66.2,28.26,North,0,0.1,0.0,67,0.00,NA,NA,0.00,davis-wu-upload.pl,2013-07-09 16:36:00,
2013-07-09 12:41:00,78.0,67.6,28.26,North,0,0.1,0.0,70,0.00,NA,NA,0.00,davis-wu-upload.pl,2013-07-09 16:41:00,
2013-07-09 12:46:00,78.2,66.4,28.26,North,0,0.1,0.0,67,0.00,NA,NA,0.00,davis-wu-upload.pl,2013-07-09 16:46:00,
2013-07-09 12:51:00,78.8,66.9,28.26,North,0,0.1,0.0,67,0.00,NA,NA,0.00,davis-wu-upload.pl,2013-07-09 16:51:00,
2013-07-09 12:56:00,80.0,67.1,28.26,North,0,0.1,0.0,65,0.00,NA,NA,0.00,davis-wu-upload.pl,2013-07-09 16:56:00,
2013-07-09 13:01:00,80.1,66.0,28.26,North,0,0.1,0.0,62,0.00,NA,NA,0.00,davis-wu-upload.pl,2013-07-09 17:01:00,
2013-07-09 13:06:00,79.4,62.5,28.26,North,0,0.1,0.0,56,0.00,NA,NA,0.00,davis-wu-upload.pl,2013-07-09 17:06:00,
2013-07-09 13:11:00,80.1,65.6,28.26,North,0,0.1,0.0,61,0.00,NA,NA,0.00,davis-wu-upload.pl,2013-07-09 17:11:00,
2013-07-09 13:16:00,79.5,66.9,28.26,North,0,0.1,0.0,66,0.00,NA,NA,0.00,davis-wu-upload.pl,2013-07-09 17:16:00,
2013-07-09 13:21:00,79.3,66.5,28.25,North,0,0.1,0.0,65,0.00,NA,NA,0.00,davis-wu-upload.pl,2013-07-09 17:21:00,
2013-07-09 13:26:00,78.6,67.1,28.25,North,0,0.1,0.0,68,0.00,NA,NA,0.00,davis-wu-upload.pl,2013-07-09 17:26:00,
2013-07-09 13:31:00,78.0,67.2,28.25,North,0,0.1,0.0,69,0.00,NA,NA,0.00,davis-wu-upload.pl,2013-07-09 17:31:00,
2013-07-09 13:36:00,78.0,68.9,28.25,North,0,0.1,0.0,74,0.00,NA,NA,0.00,davis-wu-upload.pl,2013-07-09 17:36:00,
2013-07-09 13:41:00,77.5,68.7,28.25,North,0,0.1,0.0,74,0.00,NA,NA,0.00,davis-wu-upload.pl,2013-07-09 17:41:00,
2013-07-09 13:47:00,76.9,68.7,28.25,North,0,0.1,0.0,76,0.00,NA,NA,0.00,davis-wu-upload.pl,2013-07-09 17:47:00,
2013-07-09 13:52:00,76.3,68.3,28.25,North,0,0.1,0.0,76,0.00,NA,NA,0.00,davis-wu-upload.pl,2013-07-09 17:52:00,
2013-07-09 13:58:00,76.4,68.4,28.25,North,0,0.1,0.0,76,0.00,NA,NA,0.00,davis-wu-upload.pl,2013-07-09 17:58:00,
2013-07-09 14:03:00,76.5,67.6,28.25,North,0,0.1,0.0,74,0.00,NA,NA,0.00,davis-wu-upload.pl,2013-07-09 18:03:00,
2013-07-09 14:08:00,76.5,67.3,28.25,North,0,0.1,0.0,73,0.00,NA,NA,0.00,davis-wu-upload.pl,2013-07-09 18:08:00,
2013-07-09 14:13:00,76.2,67.4,28.25,North,0,0.1,0.0,74,0.00,NA,NA,0.00,davis-wu-upload.pl,2013-07-09 18:13:00,
2013-07-09 14:18:00,75.8,67.7,28.25,North,0,0.1,0.0,76,0.00,NA,NA,0.00,davis-wu-upload.pl,2013-07-09 18:18:00,
2013-07-09 14:23:00,75.8,68.1,28.24,North,0,0.1,0.0,77,0.00,NA,NA,0.00,davis-wu-upload.pl,2013-07-09 18:23:00,
2013-07-09 14:28:00,76.5,69.0,28.24,North,0,0.1,0.0,78,0.00,NA,NA,0.00,davis-wu-upload.pl,2013-07-09 18:28:00,
2013-07-09 14:33:00,77.3,69.1,28.23,North,0,0.1,0.0,76,0.00,NA,NA,0.00,davis-wu-upload.pl,2013-07-09 18:33:00,
2013-07-09 14:38:00,77.7,69.8,28.23,North,0,0.1,0.0,77,0.00,NA,NA,0.00,davis-wu-upload.pl,2013-07-09 18:38:00,
2013-07-09 14:43:00,77.9,70.1,28.23,North,0,0.1,0.0,77,0.00,NA,NA,0.00,davis-wu-upload.pl,2013-07-09 18:43:00,
2013-07-09 14:48:00,78.5,69.9,28.23,North,0,0.1,0.0,75,0.00,NA,NA,0.00,davis-wu-upload.pl,2013-07-09 18:48:00,
2013-07-09 14:53:00,78.4,69.5,28.23,North,0,0.1,0.0,74,0.00,NA,NA,0.00,davis-wu-upload.pl,2013-07-09 18:53:00,
2013-07-09 14:58:00,78.6,70.2,28.23,North,0,0.1,0.0,76,0.00,NA,NA,0.00,davis-wu-upload.pl,2013-07-09 18:58:00,
2013-07-09 15:03:00,78.7,70.6,28.23,North,0,0.1,0.0,76,0.00,NA,NA,0.00,davis-wu-upload.pl,2013-07-09 19:03:00,
2013-07-09 15:08:00,79.6,70.2,28.23,North,0,0.1,0.0,73,0.00,NA,NA,0.00,davis-wu-upload.pl,2013-07-09 19:08:00,
2013-07-09 15:13:00,78.6,68.7,28.23,North,0,0.1,0.0,72,0.00,NA,NA,0.00,davis-wu-upload.pl,2013-07-09 19:13:00,
2013-07-09 15:18:00,77.7,68.0,28.23,North,0,0.1,0.0,72,0.00,NA,NA,0.00,davis-wu-upload.pl,2013-07-09 19:18:00,
2013-07-09 15:23:00,77.9,69.4,28.23,North,0,0.1,0.0,75,0.00,NA,NA,0.00,davis-wu-upload.pl,2013-07-09 19:23:00,
2013-07-09 15:28:00,78.2,69.2,28.22,North,0,0.1,0.0,74,0.00,NA,NA,0.00,davis-wu-upload.pl,2013-07-09 19:28:00,
2013-07-09 15:33:00,78.4,69.0,28.22,North,0,0.1,0.0,73,0.00,NA,NA,0.00,davis-wu-upload.pl,2013-07-09 19:33:00,
2013-07-09 15:38:00,78.6,69.9,28.22,North,0,0.1,0.0,75,0.00,NA,NA,0.00,davis-wu-upload.pl,2013-07-09 19:38:00,
2013-07-09 15:43:00,78.6,69.5,28.22,North,0,0.1,0.0,74,0.00,NA,NA,0.00,davis-wu-upload.pl,2013-07-09 19:43:00,
2013-07-09 15:48:00,79.2,69.5,28.22,North,0,0.1,0.0,72,0.00,NA,NA,0.00,davis-wu-upload.pl,2013-07-09 19:48:00,
2013-07-09 15:53:00,79.2,70.0,28.22,North,0,0.1,0.0,73,0.00,NA,NA,0.00,davis-wu-upload.pl,2013-07-09 19:53:00,
2013-07-09 15:58:00,79.3,69.6,28.22,North,0,0.1,0.0,72,0.00,NA,NA,0.00,davis-wu-upload.pl,2013-07-09 19:58:00,
2013-07-09 16:04:00,79.3,69.9,28.21,North,0,0.1,0.0,73,0.00,NA,NA,0.00,davis-wu-upload.pl,2013-07-09 20:04:00,
2013-07-09 16:09:00,79.0,70.2,28.21,North,0,0.1,0.0,74,0.00,NA,NA,0.00,davis-wu-upload.pl,2013-07-09 20:09:00,
2013-07-09 16:14:00,78.8,70.3,28.21,North,0,0.1,0.0,75,0.00,NA,NA,0.00,davis-wu-upload.pl,2013-07-09 20:14:00,
2013-07-09 16:19:00,78.8,70.3,28.21,North,0,0.1,0.0,75,0.00,NA,NA,0.00,davis-wu-upload.pl,2013-07-09 20:19:00,
2013-07-09 16:24:00,79.0,70.8,28.21,North,0,0.1,0.0,76,0.00,NA,NA,0.00,davis-wu-upload.pl,2013-07-09 20:24:00,
2013-07-09 16:29:00,79.1,70.9,28.21,North,0,0.1,0.0,76,0.00,NA,NA,0.00,davis-wu-upload.pl,2013-07-09 20:29:00,
2013-07-09 16:34:00,79.4,70.9,28.21,North,0,0.1,0.0,75,0.00,NA,NA,0.00,davis-wu-upload.pl,2013-07-09 20:34:00,
2013-07-09 16:39:00,79.5,70.3,28.20,North,0,0.1,0.0,74,0.00,NA,NA,0.00,davis-wu-upload.pl,2013-07-09 20:39:00,
2013-07-09 16:44:00,80.2,71.3,28.20,North,0,0.1,0.0,74,0.00,NA,NA,0.00,davis-wu-upload.pl,2013-07-09 20:44:00,
2013-07-09 16:49:00,79.6,70.7,28.20,North,0,0.1,0.0,74,0.00,NA,NA,0.00,davis-wu-upload.pl,2013-07-09 20:49:00,
2013-07-09 16:54:00,79.9,69.8,28.20,North,0,0.1,0.0,71,0.00,NA,NA,0.00,davis-wu-upload.pl,2013-07-09 20:54:00,
2013-07-09 16:59:00,80.1,71.8,28.20,North,0,0.1,0.0,76,0.00,NA,NA,0.00,davis-wu-upload.pl,2013-07-09 20:59:00,
2013-07-09 17:04:00,80.6,71.9,28.19,North,0,0.1,0.0,75,0.00,NA,NA,0.00,davis-wu-upload.pl,2013-07-09 21:04:00,
2013-07-09 17:09:00,80.0,70.0,28.19,North,0,0.1,0.0,71,0.00,NA,NA,0.00,davis-wu-upload.pl,2013-07-09 21:09:00,
2013-07-09 17:14:00,80.3,70.8,28.19,North,0,0.1,0.0,73,0.00,NA,NA,0.00,davis-wu-upload.pl,2013-07-09 21:14:00,
2013-07-09 17:19:00,79.0,69.0,28.19,North,0,0.1,0.0,72,0.00,NA,NA,0.00,davis-wu-upload.pl,2013-07-09 21:19:00,
2013-07-09 17:24:00,79.3,69.9,28.19,North,0,0.1,0.0,73,0.00,NA,NA,0.00,davis-wu-upload.pl,2013-07-09 21:24:00,
2013-07-09 17:29:00,79.5,70.1,28.19,North,0,0.1,0.0,73,0.00,NA,NA,0.00,davis-wu-upload.pl,2013-07-09 21:29:00,
2013-07-09 17:34:00,78.9,70.3,28.19,North,0,0.1,0.0,75,0.00,NA,NA,0.00,davis-wu-upload.pl,2013-07-09 21:34:00,
2013-07-09 17:39:00,78.0,67.7,28.19,North,0,0.1,0.0,71,0.00,NA,NA,0.00,davis-wu-upload.pl,2013-07-09 21:39:00,
2013-07-09 17:44:00,77.6,67.6,28.19,North,0,0.1,0.0,71,0.00,NA,NA,0.00,davis-wu-upload.pl,2013-07-09 21:44:00,
2013-07-09 17:49:00,77.6,68.2,28.19,North,0,0.1,0.0,73,0.00,NA,NA,0.00,davis-wu-upload.pl,2013-07-09 21:49:00,
2013-07-09 17:54:00,76.9,66.6,28.19,North,0,0.1,0.0,71,0.00,NA,NA,0.00,davis-wu-upload.pl,2013-07-09 21:54:00,
2013-07-09 17:59:00,76.8,66.6,28.18,North,0,0.1,0.0,71,0.00,NA,NA,0.00,davis-wu-upload.pl,2013-07-09 21:59:00,
2013-07-09 18:04:00,76.7,65.9,28.18,North,0,0.1,0.0,70,0.00,NA,NA,0.00,davis-wu-upload.pl,2013-07-09 22:04:00,
2013-07-09 18:09:00,76.9,66.6,28.18,North,0,0.1,0.0,71,0.00,NA,NA,0.00,davis-wu-upload.pl,2013-07-09 22:09:00,
2013-07-09 18:14:00,76.9,66.3,28.18,North,0,0.1,0.0,70,0.00,NA,NA,0.00,davis-wu-upload.pl,2013-07-09 22:14:00,
2013-07-09 18:19:00,77.0,67.0,28.18,North,0,0.1,0.0,71,0.00,NA,NA,0.00,davis-wu-upload.pl,2013-07-09 22:19:00,
2013-07-09 18:24:00,76.9,67.0,28.18,North,0,0.1,0.0,72,0.00,NA,NA,0.00,davis-wu-upload.pl,2013-07-09 22:24:00,
2013-07-09 18:29:00,77.0,67.3,28.18,North,0,0.1,0.0,72,0.00,NA,NA,0.00,davis-wu-upload.pl,2013-07-09 22:29:00,
2013-07-09 18:34:00,77.1,67.6,28.18,North,0,0.1,0.0,73,0.00,NA,NA,0.00,davis-wu-upload.pl,2013-07-09 22:34:00,
2013-07-09 18:40:00,76.9,67.9,28.18,North,0,0.1,0.0,74,0.00,NA,NA,0.00,davis-wu-upload.pl,2013-07-09 22:40:00,
2013-07-09 18:45:00,76.9,68.3,28.18,North,0,0.1,0.0,75,0.00,NA,NA,0.00,davis-wu-upload.pl,2013-07-09 22:45:00,
2013-07-09 18:50:00,76.8,68.5,28.18,North,0,0.1,0.0,75,0.00,NA,NA,0.00,davis-wu-upload.pl,2013-07-09 22:50:00,
2013-07-09 18:55:00,76.6,68.7,28.18,North,0,0.1,0.0,77,0.00,NA,NA,0.00,davis-wu-upload.pl,2013-07-09 22:55:00,
2013-07-09 19:00:00,77.3,68.4,28.18,North,0,0.1,0.0,74,0.00,NA,NA,0.00,davis-wu-upload.pl,2013-07-09 23:00:00,
2013-07-09 19:05:00,77.7,68.8,28.18,North,0,0.1,0.0,74,0.00,NA,NA,0.00,davis-wu-upload.pl,2013-07-09 23:05:00,
2013-07-09 19:10:00,77.9,68.9,28.18,North,0,0.1,0.0,74,0.00,NA,NA,0.00,davis-wu-upload.pl,2013-07-09 23:10:00,
2013-07-09 19:15:00,77.7,69.0,28.18,North,0,0.1,0.0,75,0.00,NA,NA,0.00,davis-wu-upload.pl,2013-07-09 23:15:00,
2013-07-09 19:20:00,77.8,69.2,28.18,North,0,0.1,0.0,75,0.00,NA,NA,0.00,davis-wu-upload.pl,2013-07-09 23:20:00,
2013-07-09 19:25:00,77.3,69.1,28.18,North,0,0.1,0.0,76,0.00,NA,NA,0.00,davis-wu-upload.pl,2013-07-09 23:25:00,
2013-07-09 19:30:00,76.8,69.4,28.18,North,0,0.1,0.0,78,0.00,NA,NA,0.00,davis-wu-upload.pl,2013-07-09 23:30:00,
2013-07-09 19:35:00,76.3,69.5,28.18,North,0,0.1,0.0,80,0.00,NA,NA,0.00,davis-wu-upload.pl,2013-07-09 23:35:00,
2013-07-09 19:40:00,75.9,69.5,28.19,North,0,0.1,0.0,81,0.00,NA,NA,0.00,davis-wu-upload.pl,2013-07-09 23:40:00,
2013-07-09 19:45:00,75.5,69.3,28.19,North,0,0.1,0.0,81,0.00,NA,NA,0.00,davis-wu-upload.pl,2013-07-09 23:45:00,
2013-07-09 19:50:00,75.2,69.4,28.19,North,0,0.1,0.0,82,0.00,NA,NA,0.00,davis-wu-upload.pl,2013-07-09 23:50:00,
2013-07-09 19:55:00,74.8,69.1,28.19,North,0,0.1,0.0,82,0.00,NA,NA,0.00,davis-wu-upload.pl,2013-07-09 23:55:00,
2013-07-09 20:00:00,74.8,69.2,28.19,North,0,0.1,0.0,83,0.00,NA,NA,0.00,davis-wu-upload.pl,2013-07-10 00:00:00,
2013-07-09 20:05:00,75.0,69.2,28.19,North,0,0.1,0.0,82,0.00,NA,NA,0.00,davis-wu-upload.pl,2013-07-10 00:05:00,
2013-07-09 20:10:00,75.0,69.0,28.19,North,0,0.1,0.0,82,0.00,NA,NA,0.00,davis-wu-upload.pl,2013-07-10 00:10:00,
2013-07-09 20:15:00,74.6,69.0,28.19,North,0,0.1,0.0,83,0.00,NA,NA,0.00,davis-wu-upload.pl,2013-07-10 00:15:00,
2013-07-09 20:20:00,75.0,69.1,28.18,North,0,0.1,0.0,82,0.00,NA,NA,0.00,davis-wu-upload.pl,2013-07-10 00:20:00,
2013-07-09 20:25:00,75.6,69.1,28.19,North,0,0.1,0.0,80,0.00,NA,NA,0.00,davis-wu-upload.pl,2013-07-10 00:25:00,
2013-07-09 20:30:00,75.3,68.9,28.19,North,0,0.1,0.0,81,0.00,NA,NA,0.00,davis-wu-upload.pl,2013-07-10 00:30:00,
2013-07-09 20:35:00,74.8,68.8,28.19,North,0,0.1,0.0,82,0.00,NA,NA,0.00,davis-wu-upload.pl,2013-07-10 00:35:00,
2013-07-09 20:40:00,75.1,69.1,28.19,North,0,0.1,0.0,82,0.00,NA,NA,0.00,davis-wu-upload.pl,2013-07-10 00:40:00,
2013-07-09 20:45:00,75.7,69.2,28.19,North,0,0.1,0.0,80,0.00,NA,NA,0.00,davis-wu-upload.pl,2013-07-10 00:45:00,
2013-07-09 20:50:00,75.6,69.3,28.19,North,0,0.1,0.0,81,0.00,NA,NA,0.00,davis-wu-upload.pl,2013-07-10 00:50:00,
2013-07-09 20:55:00,75.7,69.4,28.19,North,0,0.1,0.0,81,0.00,NA,NA,0.00,davis-wu-upload.pl,2013-07-10 00:55:00,
2013-07-09 21:00:00,75.7,69.7,28.19,North,0,0.1,0.0,82,0.00,NA,NA,0.00,davis-wu-upload.pl,2013-07-10 01:00:00,
2013-07-09 21:05:00,75.8,69.9,28.19,North,0,0.1,0.0,82,0.00,NA,NA,0.00,davis-wu-upload.pl,2013-07-10 01:05:00,
2013-07-09 21:10:00,75.7,70.0,28.19,North,0,0.1,0.0,83,0.00,NA,NA,0.00,davis-wu-upload.pl,2013-07-10 01:10:00,
2013-07-09 21:15:00,75.5,70.3,28.19,North,0,0.1,0.0,84,0.00,NA,NA,0.00,davis-wu-upload.pl,2013-07-10 01:15:00,
2013-07-09 21:20:00,75.6,70.6,28.19,North,0,0.1,0.0,85,0.00,NA,NA,0.00,davis-wu-upload.pl,2013-07-10 01:20:00,
2013-07-09 21:25:00,75.4,70.8,28.19,North,0,0.1,0.0,86,0.00,NA,NA,0.00,davis-wu-upload.pl,2013-07-10 01:25:00,
2013-07-09 21:30:00,75.2,70.9,28.20,North,0,0.1,0.0,86,0.00,NA,NA,0.00,davis-wu-upload.pl,2013-07-10 01:30:00,
2013-07-09 21:35:00,75.3,71.3,28.20,North,0,0.1,0.0,87,0.00,NA,NA,0.00,davis-wu-upload.pl,2013-07-10 01:35:00,
2013-07-09 21:40:00,75.4,71.5,28.20,North,0,0.1,0.0,88,0.00,NA,NA,0.00,davis-wu-upload.pl,2013-07-10 01:40:00,
2013-07-09 21:45:00,75.3,71.5,28.20,North,0,0.1,0.0,88,0.00,NA,NA,0.00,davis-wu-upload.pl,2013-07-10 01:45:00,
2013-07-09 21:50:00,75.0,71.5,28.20,North,0,0.1,0.0,89,0.00,NA,NA,0.00,davis-wu-upload.pl,2013-07-10 01:50:00,
2013-07-09 21:55:00,75.0,71.7,28.20,North,0,0.1,0.0,90,0.00,NA,NA,0.00,davis-wu-upload.pl,2013-07-10 01:55:00,
2013-07-09 22:00:00,74.8,71.7,28.20,North,0,0.1,0.0,90,0.00,NA,NA,0.00,davis-wu-upload.pl,2013-07-10 02:00:00,
2013-07-09 22:05:00,74.6,71.9,28.20,North,0,0.1,0.0,91,0.00,NA,NA,0.00,davis-wu-upload.pl,2013-07-10 02:05:00,
2013-07-09 22:10:00,74.4,71.9,28.20,North,0,0.1,0.0,92,0.00,NA,NA,0.00,davis-wu-upload.pl,2013-07-10 02:10:00,
2013-07-09 22:15:00,74.5,72.2,28.20,North,0,0.1,0.0,93,0.00,NA,NA,0.00,davis-wu-upload.pl,2013-07-10 02:15:00,
2013-07-09 22:20:00,74.6,72.2,28.20,North,0,0.1,0.0,92,0.00,NA,NA,0.00,davis-wu-upload.pl,2013-07-10 02:20:00,
2013-07-09 22:25:00,74.5,72.1,28.21,North,0,0.1,0.0,92,0.00,NA,NA,0.00,davis-wu-upload.pl,2013-07-10 02:25:00,
2013-07-09 22:30:00,74.2,71.9,28.21,North,0,0.1,0.0,93,0.00,NA,NA,0.00,davis-wu-upload.pl,2013-07-10 02:30:00,
2013-07-09 22:35:00,74.3,72.3,28.20,North,0,0.1,0.0,93,0.00,NA,NA,0.00,davis-wu-upload.pl,2013-07-10 02:35:00,
2013-07-09 22:40:00,74.5,72.3,28.20,North,0,0.1,0.0,93,0.00,NA,NA,0.00,davis-wu-upload.pl,2013-07-10 02:40:00,
2013-07-09 22:45:00,74.8,72.2,28.21,North,0,0.1,0.0,92,0.00,NA,NA,0.00,davis-wu-upload.pl,2013-07-10 02:45:00,
2013-07-09 22:50:00,74.5,71.8,28.21,North,0,0.1,0.0,91,0.00,NA,NA,0.00,davis-wu-upload.pl,2013-07-10 02:50:00,
2013-07-09 22:55:00,74.3,71.8,28.21,North,0,0.1,0.0,92,0.00,NA,NA,0.00,davis-wu-upload.pl,2013-07-10 02:55:00,
2013-07-09 23:00:00,74.5,72.1,28.20,North,0,0.1,0.0,92,0.00,NA,NA,0.00,davis-wu-upload.pl,2013-07-10 03:00:00,
2013-07-09 23:05:00,74.1,71.8,28.20,North,0,0.1,0.0,92,0.00,NA,NA,0.00,davis-wu-upload.pl,2013-07-10 03:05:00,
2013-07-09 23:10:00,74.2,72.0,28.20,North,0,0.1,0.0,93,0.00,NA,NA,0.00,davis-wu-upload.pl,2013-07-10 03:10:00,
2013-07-09 23:15:00,73.9,71.8,28.20,North,0,0.1,0.0,93,0.00,NA,NA,0.00,davis-wu-upload.pl,2013-07-10 03:15:00,
2013-07-09 23:20:00,74.1,72.1,28.20,North,0,0.1,0.0,94,0.00,NA,NA,0.00,davis-wu-upload.pl,2013-07-10 03:20:00,
2013-07-09 23:25:00,74.1,72.1,28.20,North,0,0.1,0.0,93,0.00,NA,NA,0.00,davis-wu-upload.pl,2013-07-10 03:25:00,
2013-07-09 23:30:00,74.1,72.1,28.20,North,0,0.1,0.0,94,0.00,NA,NA,0.00,davis-wu-upload.pl,2013-07-10 03:30:00,
2013-07-09 23:35:00,74.1,72.0,28.19,North,0,0.1,0.0,93,0.00,NA,NA,0.00,davis-wu-upload.pl,2013-07-10 03:35:00,
2013-07-09 23:40:00,74.0,71.9,28.19,North,0,0.1,0.0,93,0.00,NA,NA,0.00,davis-wu-upload.pl,2013-07-10 03:40:00,
2013-07-09 23:45:00,73.7,71.7,28.19,North,0,0.1,0.0,93,0.00,NA,NA,0.00,davis-wu-upload.pl,2013-07-10 03:45:00,
2013-07-09 23:50:00,73.6,71.8,28.19,North,0,0.1,0.0,94,0.00,NA,NA,0.00,davis-wu-upload.pl,2013-07-10 03:50:00,
2013-07-09 23:55:00,73.6,71.9,28.19,North,0,0.1,0.0,94,0.00,NA,NA,0.00,davis-wu-upload.pl,2013-07-10 03:55:00,